Regional Weather Roundup
Issued by NWS Jackson, KY

Home | Current Version | Previous Version | Text Only | Print | Product List | Glossary On
Versions: 1 2 3 4 5 6 7 8 9 10 11 12 13 14 15 16 17 18 19 20 21 22 23 24 25 26 27 28 29 30 31 32 33 34 35 36 37 38 39 40 41 42 43 44 45 46 47 48 49 50
000
ASUS43 KJKL 252310
RWRJKL

EAST KENTUCKY HOURLY WEATHER ROUNDUP
NATIONAL WEATHER SERVICE JACKSON KY
700 PM EDT SAT APR 25 2015

NOTE: "FAIR" INDICATES FEW OR NO CLOUDS BELOW 12,000 FEET WITH
NO SIGNIFICANT WEATHER AND/OR OBSTRUCTIONS TO VISIBILITY.

* THESE REPORTS ARE NOT UNDER NWS QUALITY CONTROL AND MAY NOT
  REPORT WEATHER SUCH AS PRECIPITATION AND FOG.

KYZ079-080-083-085-087-088-110-112-115-119-120-260000
...EASTERN KENTUCKY...

CITY           SKY/WX    TMP DP  RH WIND       PRES   REMARKS
JACKSON        PTSUNNY   57  52  83 CALM      29.56R
LONDON         MOSUNNY   80  51  36 W13       29.51S
SOMERSET*      MOSUNNY   77  54  44 W8        29.51F
MONTICELLO*    SUNNY     79  56  45 SW13G24   29.52F
MIDDLESBORO*   MOSUNNY   72  62  70 S7        29.54F
HARLAN APT*    MOCLDY    72  55  56 MISG      29.55F
HAZARD APT*    LGT RAIN  70  59  68 NE5       29.52F
BLACK MTN*       N/A     57  55  94 S6          N/A
PIKEVILLE APT* MOSUNNY   59  54  82 N14       29.56R
BIG SANDY*     CLOUDY    53  52  94 N7        29.59R
MOREHEAD APT*  CLOUDY    46  45  93 NE10      29.63S
$$

KYZ035-036-041-042-044-050-067-078-099-260000
...CENTRAL KENTUCKY...

CITY           SKY/WX    TMP DP  RH WIND       PRES   REMARKS
MT STERLING*   CLOUDY    48  46  93 NE10G17   29.61S
FLEMING/MASON* CLOUDY    43  43 100 NE12      29.64S
DANVILLE*      PTSUNNY   64  59  82 NE12G17   29.52F
RICHMOND*      PTSUNNY   63  55  77 N12       29.54R
LEXINGTON      CLOUDY    51  49  92 NE17      29.56F
FRANKFORT      CLOUDY    51  47  86 NE10G20   29.56S
$$

KYZ091>093-OHZ055-061-077-WVZ005-015-034-035-042-260000
...SOUTHERN OHIO/WEST VIRGINIA...

CITY           SKY/WX    TMP DP  RH WIND       PRES   REMARKS
COVINGTON      CLOUDY    45  45 100 E12       29.63S
COLUMBUS       CLOUDY    44  44 100 NE12      29.69F
DAYTON         CLOUDY    45  41  86 E12       29.68F
WILMINGTON     LGT RAIN  44  40  85 NE18G24   29.63F
HUNTINGTON     LGT RAIN  47  46  97 NE7       29.62S
CHARLESTON     FOG       48  46  93 N5        29.62R VSB 1
PINEVILLE*     PTSUNNY   60  54  78 MISG      29.61S
BECKLEY        CLOUDY    44  41  89 SE10      29.59F
BLUEFIELD      MOSUNNY   59  46  62 S7        29.60F
$$

VAZ002-007-008-TNZ017-027-036-066-071-260000
...SOUTHWEST VIRGINIA/EAST TENNESSEE...

CITY           SKY/WX    TMP DP  RH WIND       PRES   REMARKS
WISE*          MOSUNNY   64  54  68 SW14G22   29.61R
JONESVILLE*    MOCLDY    72  61  68 SW8       29.58F
ABINGDON*      CLOUDY    67  53  59 E5        29.59F
BRISTOL        CLOUDY    71  57  61 SW10      29.57F
KNOXVILLE      CLOUDY    75  60  59 SW23G30   29.55F
OAK RIDGE      PTSUNNY   76  63  64 VRB7      29.56F
CROSSVILLE     MOSUNNY   75  51  43 SW10G25   29.58F
NASHVILLE      MOSUNNY   82  52  35 VRB7G29   29.49F
$$

...KEY TO REMARKS...
VSB - VISIBILITY IN MILES
WCI - WIND CHILL INDEX
HX  - HEAT INDEX

$$


USA.gov is the U.S. government's official web portal to all federal, state and local government web resources and services.